Location: Duac?
(36.9744°N, 30.6500°E)
Time: 13:54:38
(UTC+00:00)

Cosmos 1624 Rocket - Pass Details

Date: 05 August 2024
Orbit: 754 x 782 km, 74.0° (Epoch: 11 September)

Event Time Altitude Azimuth Distance (km) Brightness Sun altitude
Rises 18:20:42 0° 197° (SSW) 3,206 7.0 -15.0°
Reaches altitude 10° 18:23:02 10° 198° (SSW) 2,288 6.3 -15.4°
Maximum altitude 18:28:15 86° 286° (WNW) 774 4.0 -16.2°
Drops below altitude 10° 18:33:32 10° 17° (NNE) 2,323 6.7 -17.1°
Sets 18:35:56 0° 18° (NNE) 3,258 7.5 -17.5°
